TimeMDT,TemperatureF,Dew PointF,Humidity,Sea Level PressureIn,VisibilityMPH,Wind Direction,Wind SpeedMPH,Gust SpeedMPH,PrecipitationIn,Events,Conditions,WindDirDegrees,DateUTC
12:15 AM,59.9,48.2,65,30.33,10.0,North,6.9,-,N/A,,Clear,10,2013-08-06 06:15:00
12:35 AM,59.9,48.0,65,30.33,10.0,NNE,5.8,-,N/A,,Scattered Clouds,20,2013-08-06 06:35:00
12:55 AM,59.5,47.8,65,30.32,10.0,North,4.6,-,N/A,,Scattered Clouds,10,2013-08-06 06:55:00
1:15 AM,59.9,47.3,63,30.32,10.0,North,5.8,-,N/A,,Scattered Clouds,360,2013-08-06 07:15:00
1:35 AM,60.3,46.8,61,30.31,10.0,NE,4.6,-,N/A,,Scattered Clouds,50,2013-08-06 07:35:00
1:55 AM,58.6,47.3,66,30.31,10.0,Calm,Calm,-,N/A,,Scattered Clouds,0,2013-08-06 07:55:00
2:15 AM,57.2,49.5,75,30.31,10.0,Calm,Calm,-,N/A,,Mostly Cloudy,0,2013-08-06 08:15:00
2:35 AM,57.4,51.3,80,30.31,10.0,Calm,Calm,-,N/A,,Scattered Clouds,0,2013-08-06 08:35:00
2:55 AM,56.3,51.1,83,30.31,10.0,NNE,5.8,-,N/A,,Scattered Clouds,30,2013-08-06 08:55:00
3:15 AM,58.1,47.3,67,30.31,10.0,North,4.6,-,N/A,,Mostly Cloudy,360,2013-08-06 09:15:00
3:35 AM,59.0,47.7,66,30.32,10.0,Calm,Calm,-,N/A,,Mostly Cloudy,0,2013-08-06 09:35:00
3:55 AM,58.5,49.5,72,30.33,10.0,Calm,Calm,-,N/A,,Scattered Clouds,0,2013-08-06 09:55:00
4:15 AM,56.8,50.4,79,30.34,10.0,Calm,Calm,-,N/A,,Mostly Cloudy,0,2013-08-06 10:15:00
4:35 AM,57.2,48.2,72,30.35,10.0,ENE,3.5,-,N/A,,Mostly Cloudy,70,2013-08-06 10:35:00
4:55 AM,56.5,48.7,75,30.36,10.0,Calm,Calm,-,N/A,,Mostly Cloudy,0,2013-08-06 10:55:00
5:15 AM,56.3,49.1,77,30.36,10.0,NNE,4.6,-,N/A,,Overcast,30,2013-08-06 11:15:00
5:35 AM,56.3,48.7,76,30.36,10.0,NNE,3.5,-,N/A,,Overcast,20,2013-08-06 11:35:00
5:55 AM,57.2,48.0,71,30.36,10.0,NE,3.5,-,N/A,,Overcast,40,2013-08-06 11:55:00
6:15 AM,57.2,48.6,73,30.36,10.0,NE,3.5,-,N/A,,Overcast,40,2013-08-06 12:15:00
6:35 AM,57.2,48.4,72,30.36,10.0,Calm,Calm,-,N/A,,Mostly Cloudy,0,2013-08-06 12:35:00
6:55 AM,57.4,49.3,74,30.35,10.0,Calm,Calm,-,N/A,,Scattered Clouds,0,2013-08-06 12:55:00
7:15 AM,58.3,50.0,74,30.34,10.0,Calm,Calm,-,N/A,,Clear,0,2013-08-06 13:15:00
7:35 AM,59.0,49.8,72,30.34,10.0,NNE,3.5,-,N/A,,Clear,20,2013-08-06 13:35:00
7:55 AM,59.5,50.5,72,30.33,10.0,North,4.6,-,N/A,,Scattered Clouds,10,2013-08-06 13:55:00
8:15 AM,60.3,50.2,69,30.32,10.0,North,8.1,-,N/A,Thunderstorm,Mostly Cloudy,10,2013-08-06 14:15:00
8:35 AM,61.2,50.0,67,30.32,10.0,NW,3.5,-,N/A,,Scattered Clouds,320,2013-08-06 14:35:00
8:55 AM,62.1,49.6,64,30.33,10.0,SW,3.5,-,N/A,,Clear,220,2013-08-06 14:55:00
9:15 AM,61.9,48.7,62,30.32,10.0,SW,4.6,-,N/A,,Scattered Clouds,220,2013-08-06 15:15:00
9:35 AM,63.5,48.7,59,30.33,10.0,West,3.5,-,N/A,,Mostly Cloudy,270,2013-08-06 15:35:00
9:55 AM,64.9,49.1,56,30.32,10.0,Calm,Calm,-,N/A,,Mostly Cloudy,0,2013-08-06 15:55:00
10:15 AM,66.4,47.7,51,30.33,10.0,Calm,Calm,-,N/A,,Scattered Clouds,0,2013-08-06 16:15:00
10:35 AM,67.1,48.4,51,30.33,10.0,Calm,Calm,-,N/A,,Clear,0,2013-08-06 16:35:00
10:55 AM,68.2,46.2,45,30.33,10.0,SW,4.6,-,N/A,,Clear,220,2013-08-06 16:55:00
11:15 AM,69.4,46.4,44,30.32,10.0,SSW,4.6,-,N/A,,Clear,210,2013-08-06 17:15:00
11:35 AM,71.1,45.0,39,30.32,10.0,WSW,6.9,-,N/A,,Clear,250,2013-08-06 17:35:00
11:55 AM,71.8,45.7,39,30.32,10.0,SSW,8.1,-,N/A,Thunderstorm,Clear,210,2013-08-06 17:55:00
12:15 PM,73.6,44.6,35,30.30,10.0,WSW,3.5,-,N/A,,Scattered Clouds,250,2013-08-06 18:15:00
12:35 PM,72.3,44.4,37,30.30,10.0,WSW,6.9,-,N/A,,Mostly Cloudy,250,2013-08-06 18:35:00
12:55 PM,72.9,45.1,37,30.29,10.0,WSW,10.4,-,N/A,,Overcast,240,2013-08-06 18:55:00
1:15 PM,72.5,44.6,37,30.29,10.0,SW,6.9,-,N/A,Thunderstorm,Overcast,230,2013-08-06 19:15:00
1:35 PM,73.2,43.5,34,30.28,10.0,SW,6.9,-,N/A,Thunderstorm,Thunderstorm,230,2013-08-06 19:35:00
1:55 PM,74.8,42.8,32,30.28,10.0,SW,11.5,17.3,N/A,,Overcast,220,2013-08-06 19:55:00
2:15 PM,71.4,42.6,35,30.28,10.0,NW,19.6,27.6,N/A,,Mostly Cloudy,310,2013-08-06 20:15:00
2:35 PM,71.8,43.5,36,30.28,10.0,NW,11.5,19.6,N/A,,Mostly Cloudy,320,2013-08-06 20:35:00
2:55 PM,70.9,43.7,38,30.28,10.0,NW,13.8,24.2,N/A,,Overcast,310,2013-08-06 20:55:00
3:15 PM,72.1,43.3,35,30.27,10.0,NW,10.4,19.6,N/A,,Overcast,320,2013-08-06 21:15:00
3:35 PM,74.3,41.4,31,30.27,10.0,NW,9.2,-,N/A,,Mostly Cloudy,310,2013-08-06 21:35:00
3:55 PM,73.8,43.3,34,30.27,10.0,WNW,10.4,18.4,N/A,,Mostly Cloudy,290,2013-08-06 21:55:00
4:15 PM,71.8,42.8,35,30.26,10.0,NW,11.5,16.1,N/A,,Mostly Cloudy,320,2013-08-06 22:15:00
4:35 PM,72.9,44.1,36,30.26,10.0,NNE,6.9,-,N/A,Thunderstorm,Mostly Cloudy,20,2013-08-06 22:35:00
4:55 PM,74.3,41.2,30,30.25,10.0,NNE,3.5,-,N/A,,Scattered Clouds,20,2013-08-06 22:55:00
5:15 PM,72.9,40.8,31,30.25,10.0,NW,10.4,-,N/A,,Clear,320,2013-08-06 23:15:00
5:35 PM,74.8,39.9,28,30.25,10.0,NW,6.9,-,N/A,,Clear,320,2013-08-06 23:35:00
5:55 PM,73.8,39.7,29,30.25,10.0,NW,10.4,-,N/A,Thunderstorm,Scattered Clouds,320,2013-08-06 23:55:00
6:15 PM,72.5,41.0,32,30.25,10.0,NW,6.9,-,N/A,Thunderstorm,Scattered Clouds,310,2013-08-07 00:15:00
6:35 PM,72.5,42.4,34,30.24,10.0,NW,5.8,-,N/A,Thunderstorm,Overcast,310,2013-08-07 00:35:00
6:55 PM,70.3,44.8,40,30.24,10.0,ESE,6.9,-,N/A,,Overcast,110,2013-08-07 00:55:00
7:15 PM,67.8,45.5,45,30.25,10.0,East,6.9,-,N/A,Thunderstorm,Overcast,90,2013-08-07 01:15:00
7:35 PM,66.2,45.9,48,30.26,10.0,SSE,5.8,-,N/A,Thunderstorm,Thunderstorm,150,2013-08-07 01:35:00
7:55 PM,63.7,49.3,59,30.27,10.0,SSE,8.1,-,N/A,Thunderstorm,Thunderstorm,150,2013-08-07 01:55:00
8:15 PM,62.4,50.9,66,30.29,10.0,ESE,4.6,-,N/A,,Overcast,120,2013-08-07 02:15:00
8:35 PM,61.3,51.8,71,30.31,10.0,ENE,5.8,-,N/A,Thunderstorm,Overcast,70,2013-08-07 02:35:00
8:55 PM,61.0,52.7,74,30.34,10.0,SSW,13.8,-,N/A,Rain,Heavy Rain,200,2013-08-07 02:55:00
9:15 PM,57.0,54.5,91,30.36,3.0,SSE,5.8,-,N/A,Rain,Heavy Rain,160,2013-08-07 03:15:00
9:35 PM,56.3,54.9,95,30.36,3.0,East,3.5,-,N/A,Rain,Heavy Rain,80,2013-08-07 03:35:00
9:55 PM,56.1,54.9,96,30.36,5.0,NE,3.5,-,N/A,Rain,Rain,50,2013-08-07 03:55:00
10:15 PM,56.3,55.4,97,30.36,4.0,NE,6.9,-,N/A,Rain,Heavy Rain,50,2013-08-07 04:15:00
10:35 PM,55.9,55.4,98,30.36,7.0,NNE,9.2,-,N/A,Rain,Rain,30,2013-08-07 04:35:00
10:55 PM,55.8,55.0,97,30.34,7.0,NNE,8.1,-,N/A,Rain,Rain,30,2013-08-07 04:55:00
11:15 PM,55.8,54.9,97,30.34,10.0,NNE,4.6,-,N/A,Rain,Rain,30,2013-08-07 05:15:00
11:35 PM,55.4,54.5,97,30.32,10.0,Calm,Calm,-,N/A,,Mostly Cloudy,0,2013-08-07 05:35:00
11:55 PM,55.6,54.3,96,30.33,10.0,Calm,Calm,-,N/A,,Clear,0,2013-08-07 05:55:00